This is the latest recevied weather packets stored in our database for station/object KN6ZYR. If no packets are shown the sender has not sent any weather packets the latest 10 day(s).
| Time | Temp. | Humidity | Pressure | Rain* | Wind** | Luminosity | Snow |
|---|---|---|---|---|---|---|---|
| 1777961711 | 7.22° C | 93% | 1017.6 hPa | 4.83 mm | - | 0 W/m² | - |
| 1777961409 | 7.22° C | 93% | 1017.4 hPa | 3.05 mm | - | 0 W/m² | - |
| 1777961106 | 7.22° C | 93% | 1017.4 hPa | 3.05 mm | - | 0 W/m² | - |
| 1777960802 | 7.78° C | 93% | 1017.4 hPa | 4.83 mm | - | 0 W/m² | - |
| 1777960498 | 7.78° C | 92% | 1017.1 hPa | 6.1 mm | - | 0 W/m² | - |
| 1777960195 | 8.33° C | 92% | 1017.2 hPa | 3.05 mm | - | 0 W/m² | - |
| 1777959892 | 8.33° C | 92% | 1017.2 hPa | 3.56 mm | - | 0 W/m² | - |
| 1777959590 | 8.33° C | 91% | 1017.2 hPa | 1.78 mm | - | 0 W/m² | - |
| 1777959288 | 8.33° C | 90% | 1017.1 hPa | 1.27 mm | - | 0 W/m² | - |
| 1777958984 | 8.33° C | 90% | 1017.1 hPa | 1.27 mm | - | 0 W/m² | - |
| 1777958681 | 8.89° C | 89% | 1016.8 hPa | 0 mm | - | 0 W/m² | - |
| 1777958378 | 8.89° C | 90% | 1016.8 hPa | 1.78 mm | - | 0 W/m² | - |
| 1777958075 | 8.89° C | 91% | 1016.8 hPa | 1.78 mm | - | 0 W/m² | - |
| 1777957773 | 8.89° C | 89% | 1016.8 hPa | 0 mm | - | 0 W/m² | - |
| 1777957471 | 8.89° C | 88% | 1016.6 hPa | 1.27 mm | - | 0 W/m² | - |
| 1777957168 | 8.89° C | 87% | 1016.6 hPa | 1.27 mm | - | 0 W/m² | - |
| 1777956865 | 8.89° C | 87% | 1016.8 hPa | 0 mm | - | 0 W/m² | - |
| 1777956561 | 8.89° C | 87% | 1016.6 hPa | 1.78 mm | - | 0 W/m² | - |
| 1777956259 | 8.89° C | 89% | 1016.7 hPa | 1.78 mm | - | 0 W/m² | - |
| 1777955955 | 8.89° C | 89% | 1016.5 hPa | 0 mm | - | 0 W/m² | - |
| 1777955652 | 9.44° C | 91% | 1016.7 hPa | 0 mm | - | 0 W/m² | - |
| 1777955348 | 9.44° C | 91% | 1016.5 hPa | 0 mm | - | 0 W/m² | - |
| 1777955044 | 8.89° C | 91% | 1016.6 hPa | 0 mm | - | 0 W/m² | - |
| 1777954741 | 8.89° C | 90% | 1016.4 hPa | 1.27 mm | - | 0 W/m² | - |
| 1777954438 | 8.89° C | 90% | 1016 hPa | 1.27 mm | - | 0 W/m² | - |
* Rain latest hour (hover to see other rain measurements)
** Current wind speed in m/s (hover to see current wind gust speed)